This is the latest recevied weather packets stored in our database for station/object HA3YA-WX. If no packets are shown the sender has not sent any weather packets the latest 10 day(s).
| Time | Temp. | Humidity | Pressure | Rain* | Wind** | Luminosity | Snow |
|---|---|---|---|---|---|---|---|
| 1777197589 | 21.11° C | 34% | 1006 hPa | - | - | - | - |
| 1777196988 | 21.11° C | 35% | 1006 hPa | - | - | - | - |
| 1777196389 | 20.56° C | 35% | 1006 hPa | - | - | - | - |
| 1777195789 | 19.44° C | 35% | 1006 hPa | - | - | - | - |
| 1777195189 | 18.89° C | 35% | 1006 hPa | - | - | - | - |
| 1777194589 | 18.33° C | 35% | 1006 hPa | - | - | - | - |
| 1777193989 | 18.89° C | 35% | 1006.1 hPa | - | - | - | - |
| 1777193390 | 18.33° C | 37% | 1006.1 hPa | - | - | - | - |
| 1777192789 | 17.78° C | 37% | 1006.1 hPa | - | - | - | - |
| 1777192189 | 18.33° C | 38% | 1006.1 hPa | - | - | - | - |
| 1777191589 | 17.78° C | 39% | 1005 hPa | - | - | - | - |
| 1777190989 | 16.67° C | 39% | 1005 hPa | - | - | - | - |
| 1777190390 | 16.67° C | 39% | 1005 hPa | - | - | - | - |
| 1777189789 | 16.67° C | 39% | 1005 hPa | - | - | - | - |
| 1777189189 | 16.67° C | 38% | 1005 hPa | - | - | - | - |
| 1777188588 | 16.67° C | 39% | 1005.1 hPa | - | - | - | - |
| 1777187989 | 17.22° C | 39% | 1005 hPa | - | - | - | - |
| 1777187391 | 17.22° C | 39% | 1004 hPa | - | - | - | - |
| 1777186789 | 16.67° C | 39% | 1004 hPa | - | - | - | - |
| 1777186189 | 16.67° C | 39% | 1004.6 hPa | - | - | - | - |
| 1777185590 | 16.67° C | 39% | 1004.6 hPa | - | - | - | - |
| 1777184989 | 16.67° C | 39% | 1004 hPa | - | - | - | - |
| 1777184390 | 16.67° C | 39% | 1004 hPa | - | - | - | - |
| 1777183789 | 16.67° C | 40% | 1004 hPa | - | - | - | - |
| 1777183189 | 16.67° C | 40% | 1004 hPa | - | - | - | - |
* Rain since midnight (hover to see other rain measurements)
** Current wind speed in m/s (hover to see current wind gust speed)